Masbate, Philippines

7:39 PM +08 on May 27, 2017 (GMT +0800)
Mactan-Cebu International

Weather History for RPVM - January, 2014

Change the Weather History Date:

Wednesday, January 29, 2014

  Actual Average Record
Temperature  
Mean Temperature 80 °F -  
Max Temperature 87 °F 84 °F 87 °F (2014)
Min Temperature 72 °F 75 °F 72 °F (2014)
Cooling Degree Days 14    
Growing Degree Days 30 (Base 50)    
Moisture  
Dew Point 70 °F    
Average Humidity 73    
Maximum Humidity 89    
Minimum Humidity 55    
Precipitation  
Precipitation 0.00 in - - ()
Sea Level Pressure  
Sea Level Pressure 29.90 in    
Wind  
Wind Speed 10 mph ()    
Max Wind Speed 22 mph    
Max Gust Speed -    
Visibility 8.3 miles    
Events      
Averages and records for this station are not official NWS values.
T = Trace of Precipitation, MM = Missing Value Source: Averaged Metar Reports

Daily Weather History Graph

Daily Weather History Graph

Search for Another Location

Airport or City:

Trip Planner

Search our weather history database for the weather conditions in past years. The results will help you decide how hot, cold, wet, or windy it might be!

Date:

Astronomy

Jan. 29, 2014 Rise Set
Actual Time 6:11 AM +08 5:45 PM +08
Civil Twilight 5:49 AM +08 6:08 PM +08
Nautical Twilight 5:23 AM +08 6:33 PM +08
Astronomical Twilight 4:57 AM +08 6:59 PM +08
Moon 4:11 AM +08 (1/29) 4:06 PM +08 (1/29)
Length of Visible Light 12h 19m
Length of Day
11h 34m
Waning Crescent, 5% of the Moon is Illuminated
Jan 29
Waning Crescent
Jan 31
New
Feb 7
First Quarter
Feb 15
Full
Feb 23
Last Quarter

Hourly Weather History & Observations

Time (+08) Temp. Heat Index Dew Point Humidity Pressure Visibility Wind Dir Wind Speed Gust Speed Precip Events Conditions
12:00 AM 75.2 °F - 71.6 °F 89% 29.92 in 6.2 mi NNW 9.2 mph - N/A   Overcast
1:00 AM 75.2 °F - 71.6 °F 89% 29.89 in 6.2 mi North 11.5 mph - N/A   Overcast
2:00 AM 75 °F - 70 °F 81% 29.92 in 11 mi NE 4.5 mph - -   Partly Cloudy
2:00 AM 75.2 °F - 71.6 °F 89% 29.89 in 6.2 mi North 10.4 mph - N/A   Overcast
3:00 AM 75.2 °F - 71.6 °F 89% 29.86 in 6.2 mi North 9.2 mph - N/A   Overcast
4:00 AM 75.2 °F - 71.6 °F 89% 29.86 in 6.2 mi North 13.8 mph - N/A   Overcast
5:00 AM 75 °F - 69 °F 78% 29.91 in 11 mi North 4.5 mph - -   Partly Cloudy
5:00 AM 75.2 °F - 71.6 °F 89% 29.86 in 6.2 mi North 11.5 mph - N/A   Overcast
6:00 AM 75.2 °F - 71.6 °F 89% 29.89 in 6.2 mi North 9.2 mph - N/A   Overcast
7:00 AM 75.2 °F - 69.8 °F 83% 29.92 in 6.2 mi NNW 9.2 mph - N/A   Scattered Clouds
8:00 AM 77 °F - 70 °F 73% 29.97 in 16 mi North 4.5 mph - -   Scattered Clouds
8:00 AM 78.8 °F - 69.8 °F 74% 29.92 in 6.2 mi North 16.1 mph - N/A   Scattered Clouds
9:00 AM 80.6 °F 83.9 °F 69.8 °F 70% 29.95 in 6.2 mi North 16.1 mph - N/A   Scattered Clouds
10:00 AM 82.4 °F 85.4 °F 68.0 °F 62% 29.95 in 6.2 mi NNE 18.4 mph - N/A   Partly Cloudy
11:00 AM 81 °F - 73 °F 71% 29.95 in 16 mi North 4.5 mph - -   Partly Cloudy
11:00 AM 84.2 °F 88.4 °F 69.8 °F 62% 29.92 in 6.2 mi NNE 19.6 mph - N/A   Partly Cloudy
12:00 PM 84.2 °F 87.3 °F 68.0 °F 58% 29.89 in 6.2 mi North 18.4 mph - N/A   Partly Cloudy
1:00 PM 86.0 °F 90.4 °F 69.8 °F 58% 29.86 in 6.2 mi NNE 20.7 mph - N/A   Partly Cloudy
2:00 PM 88 °F - 75 °F 57% 29.87 in 19 mi NE 4.5 mph - -   Scattered Clouds
2:00 PM 86.0 °F 89.4 °F 68.0 °F 55% 29.83 in 6.2 mi NNE 21.9 mph - N/A   Partly Cloudy
3:00 PM 86.0 °F 89.4 °F 68.0 °F 55% 29.83 in 6.2 mi NNE 19.6 mph - N/A   Scattered Clouds
4:00 PM 84.2 °F 87.3 °F 68.0 °F 58% 29.83 in 6.2 mi NNE 17.3 mph - N/A   Partly Cloudy
5:00 PM 83 °F - 75 °F 71% 29.87 in 16 mi NE 2.2 mph - -   Scattered Clouds
5:00 PM 84.2 °F 88.4 °F 69.8 °F 62% 29.83 in 6.2 mi NNE 17.3 mph - N/A   Mostly Cloudy
6:00 PM 80.6 °F 83.9 °F 69.8 °F 70% 29.86 in 6.2 mi North 8.1 mph - N/A   Scattered Clouds
8:00 PM 77 °F - 72 °F 82% 29.94 in 11 mi ENE 2.2 mph - -   Scattered Clouds
8:00 PM 78.8 °F - 69.8 °F 74% 29.92 in 6.2 mi NNW 6.9 mph - N/A   Mostly Cloudy
11:00 PM 77 °F - 70 °F 74% 29.97 in 11 mi Calm Calm - -   Scattered Clouds
11:00 PM 77.0 °F - 69.8 °F 78% 29.95 in 6.2 mi NNW 9.2 mph - N/A   Scattered Clouds